This is the latest recevied weather packets stored in our database for station/object IW1QLH-13. If no packets are shown the sender has not sent any weather packets the latest 10 day(s).
| Time | Temp. | Humidity | Pressure | Rain* | Wind** | Luminosity | Snow |
|---|---|---|---|---|---|---|---|
| 1788170118 | 30.56° C | 11% | - | - | - | 772 W/m² | - |
| 1788169507 | 31.67° C | 11% | - | - | - | 729 W/m² | - |
| 1788168895 | 30.56° C | 11% | - | - | - | 729 W/m² | - |
| 1788168283 | 30.56° C | 11% | - | - | - | 686 W/m² | - |
| 1788167671 | 30.56° C | 11% | - | - | - | 643 W/m² | - |
| 1788167060 | 30.56° C | 11% | - | - | - | 614 W/m² | - |
| 1788166445 | 30.56° C | 10% | - | - | - | 572 W/m² | - |
| 1788165834 | 30.56° C | 10% | - | - | - | 543 W/m² | - |
| 1788165223 | 31.67° C | 11% | - | - | - | 514 W/m² | - |
| 1788164610 | 30.56° C | 11% | - | - | - | 471 W/m² | - |
| 1788163998 | 30° C | 11% | - | - | - | 457 W/m² | - |
| 1788163386 | 30° C | 11% | - | - | - | 386 W/m² | - |
| 1788162774 | 30° C | 11% | - | - | - | 357 W/m² | - |
| 1788162162 | 28.89° C | 11% | - | - | - | 343 W/m² | - |
| 1788161550 | 27.78° C | 11% | - | - | - | 100 W/m² | - |
| 1788160937 | 26.67° C | 11% | - | - | - | 243 W/m² | - |
| 1788160326 | 26.67° C | 11% | - | - | - | 200 W/m² | - |
| 1788159714 | 25.56° C | 11% | - | - | - | 100 W/m² | - |
| 1788158492 | 25.56° C | 11% | - | - | - | 85 W/m² | - |
| 1788157574 | 25° C | 11% | - | - | - | 42 W/m² | - |
| 1788156407 | 20.56° C | 11% | - | - | - | 28 W/m² | - |
| 1788155796 | 20.56° C | 11% | - | - | - | 28 W/m² | - |
| 1788155184 | 20.56° C | 11% | - | - | - | 28 W/m² | - |
| 1788154206 | 20.56° C | 11% | - | - | - | 28 W/m² | - |
| 1788153228 | 20° C | 11% | - | - | - | 14 W/m² | - |
* Rain since midnight (hover to see other rain measurements)
** Current wind speed in m/s (hover to see current wind gust speed)